Location: Gradaro
(45.0833°N, 10.8833°E)
Time: 14:33:37
(UTC+00:00)

Cosmos 1937 Rocket - Pass Details

Date: 29 November 2020
Orbit: 745 x 781 km, 74.0° (Epoch: 24 January)

Event Time Altitude Azimuth Distance (km) Brightness Sun altitude
Rises 05:02:08 0° 206° (SSW) 3,177 6.6 -15.5°
Reaches altitude 10° 05:04:29 10° 208° (SSW) 2,260 5.8 -15.1°
Maximum altitude 05:09:35 71° 292° (WNW) 798 3.4 -14.3°
Drops below altitude 10° 05:14:47 10° 17° (NNE) 2,294 6.0 -13.4°
Sets 05:17:11 0° 20° (NNE) 3,229 6.8 -13.0°
